User: anonymous   Login
Location: Haliburton Scout Reserve
(45.0900°N, 78.3200°W)
Time: 08:50:59
(UTC-04:00)
Language:

IDEFIX/ARIANE 42P - Orbit

View from above orbital plane
View from above orbital plane
View from above satellite
View from above satellite

Ground track
Ground track

The orbit data is extracted from the following two-line orbital elements,

1 27422U 02021B   15108.69940726  .00000278  00000-0  12565-3 0  9999
2 27422 098.2626 141.0445 0013506 063.2096 297.0466 14.29165137673764
Epoch (UTC): 18 April 2015 16:47:08
Eccentricity: 0.0013506
inclination: 98.2626°
perigee height: 785 km
apogee height: 804 km
right ascension of ascending node: 141.0445°
argument of perigee: 63.2096°
revolutions per day: 14.29165137
mean anomaly at epoch: 297.0466°
orbit number at epoch: 67376

The dashed part of the orbit path shows where the satellite is in the earth's shadow,  

DLR